Tracking 34717 objects as of 14-Jul-2026
HD Live streaming from Space Station
objects crossing your sky now

OBJECT C

Track OBJECT C now!
10-day predictions


NORAD ID: 58919
Int'l Code: 2024-024C
Perigee: 163.1 km
Apogee: 187.8 km
Inclination: 97.3 °
Period: 87.9 minutes
Semi major axis: 6546 km
RCS: Unknown
Launch date: February 3, 2024
Source: (TBD)
Launch site: ()
Your satellite tracking list
Your tracking list is empty




NASA's NSSDC Master Catalog

Two Line Element Set (TLE):
1 58919U 24024C   26195.14181793  .08778660  24803-5  62823-3 0  9999
2 58919  97.2895 287.6312 0018865 272.2884  87.6255 16.39058207137212
Source of the keplerian elements: AFSPC